{"data":{"norad_id":53843,"epoch":"2026-09-20T22:06:11.685312Z","epoch_age_seconds":47938,"freshness":"FRESH","line1":"1 53843U 22114AB  26263.92096858 -.00000650  00000+0 -22746-4 0  9996","line2":"2 53843  53.1599 137.1179 0001567  95.1780 264.9390 15.08832298222448","mean_motion":15.08832298,"eccentricity":0.0001567,"inclination_deg":53.1599,"raan_deg":137.1179,"arg_perigee_deg":95.178,"mean_anomaly_deg":264.939,"bstar":-2.2746e-5,"rev_number":22244,"period_min":95.438041849234,"perigee_km":538.68289545103,"apogee_km":540.850966543,"semimajor_km":6917.903930997,"source":"CELESTRAK","updated_at":"2026-09-21T09:00:33.021541Z"}}